Theta_e
326 327 326 326 326 329 331 331 331 332 333 334 334 336 338 339 340 340 340 340 340 340 341 341 340 339 340 340 340 340 339 340 340 339 339 339 339 339 339 339 339 339 339 340 340 340 341 341 340 340 340 340 338 337 338 339 339 338 337 336 336 337 334 328 324 321 321 321 322 324 327 332 336 340 342 342 342 341 341 341 342 342 342 344 345
326 326 325 324 324 326 328 329 329 331 331 331 332 332 335 336 338 339 340 340 340 340 340 340 339 340 341 341 340 340 340 340 340 340 340 339 340 339 339 339 339 339 339 339 340 341 340 341 340 340 340 340 339 337 338 338 338 338 338 337 336 337 338 335 331 326 322 320 319 320 321 325 332 339 343 343 343 342 341 340 341 341 341 344 345
325 326 325 324 323 325 327 328 328 330 330 330 329 330 332 334 336 337 338 338 338 339 339 339 339 340 340 340 340 340 340 340 340 340 340 340 340 339 339 339 339 339 339 340 340 341 340 340 340 340 340 339 339 338 338 338 338 338 338 337 337 337 337 336 335 333 330 324 319 316 318 322 331 340 344 345 345 345 344 342 341 340 340 342 345
324 325 326 324 322 325 326 327 328 328 328 328 326 327 329 331 333 334 335 336 336 337 337 338 339 339 339 339 339 339 339 339 339 339 339 339 339 338 339 339 339 339 340 340 340 340 340 340 340 340 340 339 339 338 338 338 337 338 339 338 337 337 336 335 335 335 334 333 324 318 325 330 337 342 344 345 345 345 345 343 342 341 340 340 343
322 325 326 324 322 325 326 326 327 327 326 325 324 325 326 328 330 330 331 333 334 334 335 336 337 338 338 338 338 338 338 338 338 337 337 337 337 337 337 338 338 339 340 340 340 340 340 340 340 340 340 339 338 338 338 338 338 337 338 338 338 338 336 336 334 333 334 335 329 325 333 336 339 343 344 345 345 345 345 344 343 342 340 339 341
322 324 325 324 321 323 325 326 326 326 325 322 321 322 323 326 327 327 327 329 330 331 332 333 334 334 335 335 336 336 336 336 335 335 334 334 334 334 335 336 336 338 338 338 339 339 339 339 339 340 339 337 337 337 337 337 337 337 337 337 338 338 337 336 333 333 332 333 333 332 334 334 337 340 341 344 345 344 343 343 344 343 342 340 342
321 323 324 323 320 322 325 325 324 323 321 319 319 319 320 321 323 324 324 326 326 327 328 329 330 329 330 331 332 332 332 332 332 332 332 331 332 332 333 333 334 335 336 336 336 336 337 338 337 337 336 336 336 336 336 336 336 336 337 336 336 336 336 336 334 333 332 331 335 338 337 336 336 335 336 341 344 344 342 343 343 343 343 342 342
319 322 322 320 319 320 322 322 320 319 317 317 316 316 317 318 319 320 321 322 322 323 324 325 325 325 325 326 326 326 327 327 327 327 328 328 328 329 330 331 331 333 333 333 333 334 335 335 335 334 333 334 334 334 334 334 334 335 335 335 335 335 335 335 335 335 333 332 336 339 339 339 338 336 335 336 339 340 339 338 338 340 343 343 343
318 321 320 318 317 318 318 317 316 315 315 315 315 315 315 315 316 317 317 318 318 319 319 320 320 320 320 320 320 320 321 321 321 322 323 323 324 325 326 327 327 328 329 329 330 331 332 332 333 332 330 331 331 331 331 331 332 332 332 333 333 334 334 334 334 334 334 334 338 339 338 339 339 338 338 338 336 335 333 329 326 330 339 342 343
318 320 320 316 315 316 315 316 316 315 314 313 313 313 313 313 313 313 313 314 314 314 315 315 315 315 314 314 313 313 313 314 314 315 316 317 318 319 320 321 322 323 324 324 325 326 327 327 328 328 328 328 328 328 328 328 328 329 329 330 331 332 332 333 333 333 333 333 337 338 338 338 338 338 339 339 338 337 335 331 325 324 329 335 341
317 319 319 315 314 315 314 315 315 313 313 312 311 310 309 308 308 307 307 307 307 307 307 307 307 307 307 306 306 305 306 306 307 307 308 309 310 311 311 312 313 315 316 317 318 318 319 320 320 321 322 323 323 324 324 324 324 325 326 327 328 329 329 330 331 331 331 331 334 336 337 337 338 338 338 338 339 340 338 334 331 329 326 327 336
315 316 315 313 313 314 314 314 312 311 311 311 310 307 305 304 304 303 302 302 301 301 301 301 301 301 301 300 300 300 300 300 301 301 301 302 302 303 303 303 304 305 306 307 308 308 309 310 310 310 311 312 313 315 316 317 318 319 321 322 323 325 327 327 328 329 329 329 331 336 337 337 338 338 337 337 338 338 336 334 332 330 329 328 331
313 313 312 311 310 312 312 311 310 310 309 308 306 304 302 301 301 300 300 299 299 299 298 298 298 298 298 298 298 298 298 298 298 298 298 298 298 298 298 298 298 299 299 300 300 300 301 301 302 302 302 303 304 304 306 307 308 311 312 314 316 318 321 323 325 326 327 327 329 333 335 335 336 336 336 336 336 336 335 334 331 328 328 332 331
311 312 310 307 306 306 306 305 306 306 306 304 302 301 300 299 298 298 298 297 297 297 297 297 297 297 297 297 297 297 297 297 297 297 297 297 296 296 297 297 297 297 297 297 297 297 298 298 298 298 298 298 299 299 299 300 300 302 304 305 307 310 313 316 318 321 324 325 325 327 331 335 336 337 336 336 336 335 335 334 333 330 327 330 333
307 308 306 304 302 302 301 302 302 302 302 301 299 298 298 297 297 297 297 297 296 296 296 296 296 296 296 296 296 296 296 296 296 296 296 296 296 296 296 296 296 296 296 296 296 297 297 297 297 297 297 297 297 298 297 298 298 298 298 299 300 302 304 307 310 313 315 317 320 324 327 332 335 336 336 336 336 336 336 335 333 332 330 330 331
303 303 302 301 300 300 299 300 299 299 298 298 298 297 297 297 297 297 297 297 296 296 296 296 296 296 296 296 296 296 296 296 296 296 296 296 296 296 296 296 296 296 296 296 296 296 296 296 297 297 297 297 297 297 297 297 297 297 297 297 298 298 299 300 302 305 310 316 323 328 330 330 331 333 334 334 334 335 336 335 334 333 333 332 330
301 300 300 300 299 298 298 298 298 297 297 296 297 296 296 297 296 297 297 296 296 296 296 296 296 296 296 296 296 296 296 296 296 296 296 296 296 296 296 296 296 296 296 296 296 296 296 296 296 297 297 297 297 297 297 297 297 297 297 297 297 297 298 299 304 311 317 324 328 329 329 330 331 333 333 334 333 333 334 335 335 334 334 333 332
299 299 299 299 299 298 297 296 296 296 296 296 296 296 296 296 296 296 296 296 296 296 296 296 296 296 295 296 295 295 295 295 295 295 295 295 295 295 295 295 295 295 295 295 295 295 295 296 296 296 296 296 296 296 296 297 297 297 297 297 297 298 300 304 312 318 321 323 325 325 326 328 331 332 333 334 333 333 332 333 334 335 335 334 333
298 299 298 298 299 299 297 296 296 296 296 296 296 296 296 296 296 296 296 295 295 295 295 295 295 295 295 295 295 295 295 295 294 294 294 294 294 294 294 294 294 294 294 294 294 295 294 295 295 295 295 295 295 296 296 296 296 296 296 296 297 299 301 305 308 310 310 310 310 312 317 322 325 327 329 329 329 329 330 330 330 332 333 334 333
298 300 299 298 299 299 297 296 296 296 296 296 295 296 296 296 296 295 295 295 295 295 295 295 294 295 294 294 294 294 294 294 294 294 294 294 293 293 293 293 293 293 293 294 294 294 294 294 294 294 295 295 295 295 295 295 295 296 296 296 296 297 298 299 299 299 300 301 303 306 312 317 321 324 325 326 326 326 327 327 326 328 329 330 333
299 300 300 299 299 298 297 296 297 297 296 295 296 296 296 296 296 296 295 295 295 295 295 295 294 294 294 294 294 294 293 293 293 293 293 293 293 293 293 293 293 293 293 293 293 293 293 293 293 294 294 294 294 294 294 294 295 295 295 295 295 295 295 296 296 297 299 302 305 307 308 312 315 316 317 319 320 319 320 322 323 325 326 327 329
300 300 300 299 299 298 297 297 297 296 295 295 295 295 296 296 295 295 295 295 295 295 294 294 294 294 294 293 294 294 294 293 294 294 294 294 293 293 293 293 293 293 293 293 293 293 293 293 293 293 293 293 293 293 294 294 294 294 295 295 295 294 295 295 295 296 298 300 302 302 304 307 309 309 310 312 314 312 308 309 314 318 322 324 326
301 300 300 300 299 298 298 297 296 295 295 295 295 296 296 296 295 295 295 295 295 295 294 294 294 294 294 293 294 294 294 294 294 294 294 294 293 293 293 293 293 292 292 292 292 292 293 293 293 293 293 293 293 293 293 294 294 294 295 295 295 295 295 295 295 295 296 297 298 299 301 303 305 307 309 311 313 313 310 306 307 311 318 322 322
301 300 300 300 299 298 298 297 296 295 295 295 295 296 296 295 295 295 295 295 295 295 294 294 295 295 294 294 294 294 294 294 294 294 294 294 293 293 293 292 292 292 292 292 292 292 292 292 292 292 292 292 292 293 294 294 294 294 295 295 295 295 295 295 296 296 296 296 296 296 296 297 299 301 305 309 311 313 314 313 311 309 312 317 320
302 301 300 300 299 298 297 297 296 295 295 295 295 295 295 296 295 295 295 295 295 295 295 294 295 295 295 294 294 294 294 294 294 294 294 294 293 293 293 292 292 292 292 292 291 291 291 291 291 291 291 291 292 293 294 293 294 295 295 295 295 295 295 295 296 296 296 296 296 296 296 296 296 297 299 304 307 309 310 311 310 307 306 307 312
302 301 301 300 299 298 298 297 296 295 295 295 296 296 295 295 295 295 295 294 295 295 295 295 295 295 295 295 294 294 294 295 294 294 294 294 293 293 292 292 292 292 292 291 291 291 291 290 291 291 291 291 291 292 293 292 293 294 294 295 295 295 295 295 295 296 296 296 296 296 296 296 297 298 297 298 300 301 304 307 306 305 305 302 303
302 302 301 300 299 299 298 298 296 295 295 295 296 296 295 296 295 294 295 294 294 294 294 295 295 295 295 295 294 294 294 294 294 294 294 293 293 292 292 291 291 291 291 291 291 290 290 290 291 290 290 290 290 291 291 291 293 293 293 293 294 294 294 294 295 295 295 295 295 295 296 296 296 297 297 297 298 298 299 302 304 305 304 304 303
303 302 301 300 299 299 298 298 296 295 296 297 297 296 296 297 295 294 295 295 294 294 294 294 295 295 295 295 295 294 294 294 294 294 293 293 292 292 291 291 291 291 291 290 290 290 290 290 290 290 290 290 290 290 290 291 291 291 292 292 293 293 293 293 293 293 294 294 295 295 295 296 296 296 296 297 299 301 301 300 301 303 305 307 308
303 302 302 301 300 299 299 298 297 295 296 298 297 295 296 297 295 294 295 295 294 294 294 294 295 295 295 294 294 294 294 294 293 293 293 292 292 291 291 291 290 290 290 290 290 289 290 290 290 289 289 290 290 290 290 290 290 290 291 291 291 291 291 291 292 292 292 293 293 294 294 294 295 296 297 299 299 301 304 304 303 304 308 309 310
303 302 302 301 300 299 299 298 297 296 296 298 297 296 296 296 294 294 294 294 295 294 293 294 295 295 294 294 294 293 293 293 293 292 292 292 291 291 290 290 290 290 290 290 289 289 289 290 290 290 289 289 290 290 290 290 290 290 290 290 291 291 291 291 291 291 291 292 292 292 293 293 294 295 296 299 300 301 303 305 306 306 307 308 309
303 303 302 301 300 299 299 298 297 297 296 297 297 296 296 295 294 295 294 293 294 293 293 294 294 294 294 293 293 293 293 292 292 292 291 291 291 290 290 290 290 290 290 289 289 288 289 289 290 290 289 290 290 290 290 290 290 290 290 290 290 290 290 290 290 291 291 291 291 292 292 292 293 294 295 296 299 301 302 304 305 306 306 307 308
303 303 302 301 300 299 299 298 297 297 296 296 297 297 296 295 294 295 293 293 293 292 293 293 293 293 293 293 293 292 292 292 292 291 291 291 291 290 290 290 290 290 289 289 289 288 288 289 290 289 289 289 289 289 290 289 289 289 289 290 290 290 290 290 290 290 291 291 291 291 292 292 293 293 293 294 296 298 301 303 303 304 305 306 307
303 303 302 301 300 299 298 298 298 297 296 296 296 297 296 295 294 294 294 293 293 292 293 292 292 293 292 292 292 291 291 292 291 291 291 291 290 290 290 290 290 289 289 288 288 288 288 289 289 289 288 289 289 289 289 289 289 289 289 289 289 289 289 289 290 290 290 290 291 291 292 292 293 293 293 293 295 296 298 300 301 303 304 305 306
303 303 302 301 300 299 298 298 298 297 297 296 296 297 296 295 294 294 294 293 292 292 293 292 293 293 292 292 292 291 291 291 291 291 291 290 290 290 290 290 289 289 289 288 288 288 288 289 289 288 288 288 288 288 288 288 288 289 289 289 289 289 289 289 289 290 290 291 291 291 292 292 292 293 294 294 294 295 295 296 298 300 302 303 305
304 303 302 301 300 299 298 298 297 297 297 297 297 296 296 296 294 294 294 293 292 292 293 292 292 293 293 292 292 291 291 291 291 291 290 290 290 290 289 289 289 289 288 288 288 287 288 289 288 288 288 288 287 287 288 288 288 288 288 288 288 288 289 289 289 290 290 291 291 291 292 292 293 293 293 294 295 295 295 295 297 299 301 302 303
304 303 302 301 300 299 298 297 297 297 296 297 297 296 296 295 294 294 294 292 292 292 292 292 292 292 292 293 293 292 291 291 291 290 290 290 290 290 289 289 289 288 288 288 287 287 288 288 288 288 288 287 287 287 287 288 288 288 288 288 288 288 289 289 289 290 290 290 291 291 292 292 293 293 294 294 295 295 295 296 297 299 299 300 300
304 303 302 301 300 299 298 297 297 297 296 296 296 296 295 295 294 294 293 293 293 293 292 292 292 292 292 292 293 292 291 291 290 290 290 290 290 290 289 288 288 288 287 287 287 287 287 288 288 288 287 287 287 287 287 287 288 288 288 288 288 288 288 289 289 289 290 290 291 291 292 293 293 294 295 295 295 296 296 296 297 297 298 298 298
304 303 302 301 300 299 298 297 297 297 296 296 296 295 295 295 294 294 294 293 293 293 292 292 292 291 291 292 292 292 291 290 290 290 290 290 290 289 289 288 288 287 287 286 286 286 287 288 288 287 286 286 286 287 287 287 288 288 288 288 288 288 288 289 289 290 290 290 291 292 292 293 294 295 295 296 296 296 296 297 297 296 296 296 297
304 303 302 301 300 299 298 297 297 297 296 296 296 296 295 295 294 294 293 293 293 293 292 292 292 291 291 291 292 291 290 290 290 290 290 289 289 289 288 288 287 286 286 286 286 286 287 287 286 286 286 286 286 287 287 287 287 287 287 288 287 288 288 289 289 290 290 291 291 292 293 294 295 296 296 296 296 296 296 297 296 295 295 296 296
303 302 302 301 300 299 298 297 297 297 296 296 296 295 295 294 294 293 293 293 292 292 293 292 291 291 291 291 291 291 290 290 290 290 289 289 288 288 288 287 287 286 286 286 286 286 286 285 285 285 286 286 287 287 287 287 287 287 287 287 287 287 288 288 289 290 290 291 292 293 293 294 295 294 293 293 294 295 295 295 294 293 294 295 295
303 302 301 301 300 299 298 298 297 297 296 296 295 295 294 294 294 293 293 292 292 292 292 292 291 291 291 291 291 290 289 289 289 289 289 288 288 288 287 287 286 286 286 286 286 286 285 285 285 286 286 287 286 286 286 287 287 287 287 286 287 287 288 288 290 291 291 291 292 291 291 291 291 291 290 291 292 293 293 292 292 293 293 294 294
302 301 301 300 300 299 298 298 297 297 296 296 295 295 294 294 294 293 293 292 292 292 292 291 291 291 291 291 290 290 289 289 289 289 288 288 288 288 287 287 286 286 286 286 286 285 285 285 286 286 286 287 286 286 286 287 287 287 286 286 287 287 287 289 290 291 290 290 289 289 289 289 290 290 290 290 291 291 291 291 292 292 292 293 294
301 301 301 300 300 299 298 298 297 297 296 296 295 295 294 294 294 293 293 292 292 292 292 291 291 291 291 290 290 289 289 289 289 289 288 288 288 288 287 286 286 286 286 286 285 285 285 285 286 286 286 286 286 286 286 287 286 286 286 287 287 286 287 289 290 289 288 288 288 288 289 289 289 289 289 289 290 290 290 290 290 291 291 292 293
301 300 300 300 300 299 298 298 297 297 296 296 295 295 294 294 294 293 293 293 293 292 292 292 291 291 291 290 290 289 289 289 288 288 288 288 288 288 287 286 286 286 286 286 285 285 285 285 286 286 286 286 286 285 285 285 286 286 287 287 286 287 288 288 287 286 287 287 287 287 287 287 288 288 288 288 289 289 289 289 289 290 290 291 291
301 300 300 300 299 299 298 298 297 297 296 296 295 295 294 294 294 294 294 294 293 293 292 292 292 291 291 290 290 289 289 289 288 288 288 288 288 287 287 286 285 285 285 285 285 284 284 285 285 285 285 285 285 285 285 285 285 286 286 286 286 287 287 286 285 286 287 287 286 286 287 287 287 287 287 287 288 288 288 288 289 289 289 290 290
301 300 300 300 299 299 298 298 297 297 296 296 295 295 294 294 294 294 294 293 293 292 292 292 292 291 291 290 289 289 289 288 288 288 288 287 287 287 286 285 285 285 285 284 284 284 284 284 284 285 285 285 285 285 285 284 285 285 286 286 286 286 285 285 285 286 286 285 286 286 286 286 287 286 287 287 287 287 288 288 288 288 289 289 289
301 300 300 299 299 299 299 298 298 297 296 296 295 295 294 294 294 294 293 293 292 292 292 292 292 291 290 290 289 289 289 288 288 287 287 287 287 286 286 285 285 285 284 284 284 284 284 284 284 284 285 285 284 284 284 284 284 285 285 285 286 285 285 286 286 285 285 285 285 285 286 286 286 286 286 286 287 287 287 287 288 288 288 289 289
301 301 300 299 299 299 298 298 298 297 296 296 295 295 294 294 294 294 293 293 292 292 292 291 291 291 290 289 289 289 289 289 288 287 287 287 286 286 285 285 285 284 284 284 283 283 283 283 284 284 284 284 284 284 284 284 284 284 284 284 285 285 285 285 285 285 285 285 285 285 285 285 286 286 286 286 286 287 287 287 288 288 288 288 288
301 301 300 299 299 298 298 298 298 297 296 296 295 295 294 294 294 293 293 293 292 292 292 291 291 291 290 290 290 289 289 288 287 287 286 286 286 286 285 285 284 284 284 283 283 283 283 283 283 283 283 283 283 284 284 284 283 283 283 283 284 284 284 284 284 285 285 285 284 285 285 285 285 285 285 286 286 286 286 286 287 287 287 287 287
301 301 300 299 299 298 298 298 298 297 296 296 295 295 294 294 294 293 293 292 292 292 292 291 292 291 291 290 290 289 288 288 287 287 286 286 286 285 285 284 284 284 283 283 283 283 283 283 283 283 283 283 283 283 283 283 283 283 283 283 283 283 283 283 283 284 284 284 284 284 284 284 284 284 285 285 285 285 285 285 285 285 285 285 285
301 301 300 299 298 298 298 298 297 297 296 296 295 295 294 294 293 293 292 292 292 292 292 292 291 291 290 290 289 288 288 287 287 286 286 285 285 285 284 284 284 283 283 282 282 282 282 282 282 282 282 282 282 282 282 282 282 282 282 282 283 283 282 283 283 283 283 283 283 283 283 283 283 283 284 284 284 284 284 284 284 284 284 284 285
Wind_Speed
10 8 6 7 7 8 8 8 8 8 8 8 7 8 9 10 11 11 11 11 11 10 9 9 8 8 8 8 7 6 6 5 5 5 6 6 6 7 7 7 7 7 7 8 8 8 8 7 7 6 6 6 6 6 7 9 9 9 11 12 12 13 14 14 12 10 10 10 10 10 10 9 9 9 8 7 8 8 9 9 9 9 9 9 7
10 9 7 8 7 8 8 8 8 8 8 7 6 6 7 7 8 9 10 10 10 11 11 11 9 10 11 11 10 10 9 9 8 7 7 7 7 8 8 8 8 8 8 7 8 7 7 7 7 7 7 8 7 6 7 9 9 9 11 11 11 12 12 13 13 12 11 11 11 11 10 9 8 8 8 8 8 8 9 9 9 9 9 8 8
10 8 8 8 7 9 9 9 8 7 8 7 6 6 6 6 8 8 8 9 9 9 9 10 10 10 12 12 12 12 12 12 11 11 9 9 9 8 8 9 8 8 8 8 8 8 8 8 7 7 7 8 8 7 7 8 9 9 10 11 11 11 11 12 12 13 12 12 12 11 11 10 7 8 9 10 10 9 8 9 9 10 9 8 9
10 8 8 7 8 10 10 9 9 8 8 8 5 5 5 6 7 6 5 7 6 6 7 8 9 9 10 9 10 10 11 11 11 11 10 10 9 8 9 9 9 9 9 9 9 9 9 8 8 8 8 7 7 7 7 8 8 8 9 10 10 11 11 11 11 12 12 13 12 10 10 11 11 10 10 10 10 10 9 8 9 10 10 9 8
11 10 6 5 8 10 10 9 9 8 8 7 5 5 5 6 7 4 3 4 3 2 3 5 6 7 6 5 6 7 7 7 7 7 7 8 7 6 7 7 9 9 10 10 10 11 11 10 9 9 8 7 7 8 8 8 7 8 8 9 10 10 11 11 10 11 12 13 13 10 10 13 13 10 10 11 12 11 10 9 9 9 10 10 9
12 10 7 4 7 10 10 9 9 9 8 6 5 5 5 6 7 6 4 4 4 3 3 4 4 2 2 2 3 3 3 4 3 3 4 3 3 3 3 3 5 6 7 9 10 10 10 10 10 10 8 7 8 9 8 8 7 7 7 7 8 8 10 11 11 11 11 13 12 11 11 11 10 9 11 12 12 12 12 10 10 10 10 10 9
13 10 8 6 7 9 9 9 9 8 7 6 5 5 5 5 6 6 5 5 5 6 6 7 5 2 1 1 1 2 2 3 4 5 5 4 3 3 3 3 3 2 3 5 7 7 7 7 9 11 9 7 7 7 8 8 8 8 7 6 7 8 9 10 12 12 12 12 10 12 11 11 10 8 8 9 10 12 12 11 10 11 11 10 10
13 9 7 6 7 9 8 8 7 6 5 5 5 5 5 5 5 5 5 4 4 5 6 6 5 4 3 2 2 3 3 4 5 6 7 7 6 6 6 6 6 5 4 5 6 5 6 6 6 8 9 8 8 8 8 7 7 8 8 6 7 8 9 10 11 12 12 11 10 12 12 11 11 9 10 11 10 11 12 12 11 12 11 10 10
13 8 6 6 8 8 7 7 6 6 5 5 5 5 5 5 6 5 5 5 4 4 4 4 4 3 4 3 4 4 4 5 5 5 5 6 6 6 7 7 8 7 6 6 7 6 6 7 8 9 10 10 10 10 10 10 9 10 10 10 9 9 9 10 11 11 12 10 10 12 12 12 11 11 14 14 11 12 14 15 14 13 12 11 11
12 10 8 8 10 9 8 8 7 7 7 7 7 6 7 6 6 6 6 5 5 4 4 4 4 4 4 4 4 5 5 5 5 5 5 5 5 5 6 6 7 7 7 7 7 8 8 8 9 10 11 12 12 11 12 12 12 12 14 14 13 12 11 11 11 11 11 10 8 8 11 13 14 13 13 12 10 13 15 16 16 15 14 13 12
11 11 10 10 12 10 10 10 9 8 8 7 7 7 7 7 6 6 6 6 6 5 5 5 4 5 5 5 5 5 6 6 6 6 6 6 6 6 6 7 7 7 8 8 9 9 10 10 11 12 12 13 13 13 13 13 14 14 15 16 16 15 14 13 12 11 10 10 9 9 10 11 12 13 12 12 12 12 15 16 16 16 15 14 13
11 11 11 12 14 13 12 10 9 8 8 7 7 6 6 6 6 5 5 5 5 5 5 5 5 5 5 5 5 6 6 6 6 7 7 7 7 7 8 8 8 8 9 9 10 10 11 12 13 14 14 15 15 15 15 15 15 15 16 16 17 16 16 16 15 13 12 11 9 10 12 11 11 12 13 14 15 16 18 17 16 16 16 14 13
12 10 11 14 14 13 12 10 9 8 7 7 5 5 4 4 4 4 4 4 4 4 4 4 4 5 5 5 6 6 7 8 8 8 8 8 8 9 9 9 9 9 10 10 10 10 11 12 13 13 14 15 15 15 16 16 16 16 17 17 17 17 17 17 16 16 15 13 11 10 11 12 13 13 13 15 17 19 21 20 17 16 15 14 13
13 11 11 13 12 10 9 8 8 8 7 5 4 3 3 3 3 3 3 4 4 4 5 5 5 6 6 7 7 8 8 9 9 9 9 9 10 10 10 10 10 10 10 11 11 11 11 11 12 12 13 14 14 14 15 15 16 16 17 17 17 17 18 17 17 17 17 16 15 13 11 12 13 13 14 15 17 18 19 20 19 17 15 14 14
14 12 10 10 9 8 7 8 7 7 6 5 4 4 3 4 4 4 4 4 5 5 6 6 7 7 8 8 8 9 9 9 9 9 9 10 10 10 10 10 11 11 11 12 12 12 13 13 13 13 14 14 14 14 14 14 15 16 16 16 17 17 17 17 18 18 18 18 16 14 11 11 12 13 14 14 15 16 17 19 20 19 17 15 14
14 12 10 10 10 10 10 9 8 7 6 6 5 5 5 5 5 6 6 6 6 7 7 7 8 8 8 9 9 9 9 9 9 9 9 9 9 9 10 10 11 11 12 12 13 13 13 14 14 14 15 15 15 15 15 15 15 15 16 16 16 16 16 16 17 16 16 15 13 12 12 12 13 13 15 15 15 16 17 18 19 19 18 17 15
14 13 12 11 11 12 11 10 9 8 7 7 7 6 7 7 7 8 8 8 8 8 8 8 8 8 8 8 8 8 8 8 8 8 8 8 9 9 9 9 10 10 11 12 12 12 13 13 14 14 14 15 15 16 16 15 15 16 16 16 16 16 15 15 14 12 11 10 10 10 11 13 13 13 14 14 15 17 17 17 18 19 19 19 18
15 14 14 12 11 11 11 10 9 9 8 8 8 8 8 9 9 9 10 10 10 9 9 9 8 8 8 8 8 8 8 8 8 8 8 8 9 9 9 9 9 10 10 10 11 11 12 12 13 13 13 13 14 14 14 15 16 16 17 17 17 15 13 11 10 9 8 8 8 9 10 12 13 13 14 14 16 17 17 18 18 19 19 19 19
15 14 14 13 12 12 11 11 10 9 9 9 9 9 10 10 10 10 10 10 9 9 9 10 9 9 9 9 9 10 10 10 10 10 10 10 11 10 11 11 11 11 11 11 12 12 12 12 13 13 12 12 12 12 13 14 15 15 16 16 16 14 12 10 10 10 9 10 10 9 10 13 15 15 16 17 18 19 19 19 19 20 20 20 20
15 14 14 14 14 13 12 12 11 10 10 10 9 10 10 9 10 9 9 9 9 9 9 10 9 9 10 10 11 11 12 11 11 12 12 12 13 13 13 14 14 14 13 14 15 14 14 14 15 14 14 14 14 14 15 15 14 15 15 15 15 14 14 13 13 13 12 11 10 9 10 13 15 15 16 17 19 20 20 21 21 21 21 21 21
16 15 15 15 15 14 13 13 13 12 11 10 10 10 10 9 9 9 9 8 9 9 9 9 9 9 11 11 10 10 12 12 12 12 13 13 14 14 14 15 15 15 15 16 17 16 16 17 17 16 16 16 16 16 16 16 16 16 15 15 15 15 15 15 15 15 14 12 11 10 10 13 14 16 17 17 19 21 22 23 23 22 22 22 22
18 18 17 17 17 16 15 15 15 14 12 11 10 10 9 9 9 8 8 8 8 8 8 9 8 9 11 11 9 10 12 12 12 13 14 14 15 14 15 16 16 16 16 18 18 18 18 19 19 19 18 18 18 18 17 17 17 17 16 15 16 16 16 16 16 15 14 13 12 12 12 14 15 17 18 18 18 21 23 23 23 23 23 22 22
21 21 19 19 19 18 18 17 17 16 14 13 11 10 9 9 8 8 8 7 7 7 7 8 8 9 10 10 9 10 11 12 13 14 14 15 15 15 16 16 17 17 17 18 19 19 19 19 20 19 19 19 20 19 19 19 19 18 17 16 17 18 18 18 17 16 16 15 15 15 15 15 17 17 18 18 18 18 20 22 22 22 22 22 24
23 23 22 21 21 21 20 19 18 18 16 14 13 12 10 10 9 9 8 8 7 7 7 7 7 8 9 9 9 10 10 11 12 12 13 14 14 14 15 16 16 17 17 18 19 19 19 18 19 19 19 20 20 20 20 20 20 19 19 18 19 19 19 18 18 17 17 17 17 17 17 17 18 18 18 18 18 18 19 20 21 22 22 22 23
23 23 24 24 23 23 22 21 20 19 18 16 15 13 12 11 11 10 9 8 7 7 6 6 6 7 7 8 8 9 9 10 10 11 12 12 13 13 14 15 15 16 17 17 18 19 18 17 18 19 19 19 19 19 19 19 19 19 19 19 19 19 20 19 19 18 18 18 19 19 19 19 19 20 20 19 19 20 20 20 21 22 23 23 22
24 25 27 27 25 24 24 24 22 21 19 18 16 15 14 12 11 11 10 9 7 6 6 6 5 5 6 6 7 7 7 8 9 10 10 11 12 13 13 14 15 16 17 17 18 19 18 17 18 19 20 19 18 17 17 17 17 18 18 18 18 19 20 20 19 19 20 20 21 21 20 20 21 21 22 22 21 21 21 21 22 22 23 23 23
27 28 28 28 27 26 26 26 24 24 21 18 17 16 15 13 13 12 11 10 8 7 6 6 5 5 4 5 5 5 5 6 7 8 9 10 11 12 13 14 15 15 17 17 18 19 18 17 17 19 20 19 18 17 18 17 17 17 17 17 18 19 20 20 20 21 21 21 22 22 22 21 22 23 24 24 23 22 22 22 22 23 23 23 23
28 27 27 28 28 28 27 27 26 25 22 20 19 17 16 15 15 14 12 11 10 9 8 7 6 5 4 3 3 3 4 5 6 7 8 9 10 11 12 14 14 15 16 17 18 18 18 17 17 19 20 20 19 19 19 19 18 19 19 19 19 20 21 20 20 21 21 22 22 23 23 23 23 24 25 25 24 24 23 22 22 22 23 23 23
28 28 28 28 30 29 28 28 27 27 24 22 21 19 18 18 16 15 15 13 12 11 9 8 7 6 5 3 2 2 2 3 4 5 7 8 10 11 12 13 14 14 16 17 17 18 17 16 17 19 21 20 20 21 20 21 21 21 20 21 22 23 23 23 23 23 23 23 23 24 24 24 24 24 24 24 24 24 24 23 23 22 23 23 24
29 29 28 29 30 30 29 29 28 28 27 24 21 20 21 19 18 17 16 15 14 12 11 9 8 7 6 4 3 2 1 2 3 4 6 7 8 10 11 11 12 13 15 16 16 16 16 16 16 19 20 20 21 21 20 21 22 22 21 22 23 24 24 25 26 27 26 26 26 26 26 25 25 25 24 23 24 24 24 23 23 23 23 23 23
29 29 30 30 31 31 30 29 29 28 28 26 23 22 22 20 20 19 18 17 16 13 12 11 10 8 7 5 4 2 1 1 1 3 4 5 7 8 9 10 11 12 14 15 15 15 16 15 15 17 19 19 20 19 19 21 22 22 22 22 23 24 25 26 27 27 27 27 27 27 27 27 25 25 25 24 23 23 23 23 23 23 23 23 23
29 32 31 31 32 32 31 30 30 29 28 27 25 24 22 22 22 20 19 19 17 15 14 13 11 9 7 6 5 3 2 1 0 2 3 4 6 7 9 10 11 12 13 14 14 15 15 13 13 16 17 17 18 18 19 20 22 22 21 22 23 24 25 26 27 27 27 27 27 27 27 27 26 25 25 24 24 22 22 22 22 22 22 22 22
31 32 31 32 33 33 33 31 30 30 29 28 27 25 23 23 23 21 21 20 18 16 15 14 12 10 8 7 5 4 3 2 1 2 3 4 6 7 9 10 10 11 12 13 14 14 13 12 13 15 16 16 17 18 19 20 21 22 21 22 23 24 26 26 27 27 27 27 27 27 26 26 25 24 24 24 24 23 22 22 21 22 22 22 22
31 31 32 33 34 34 33 32 31 31 30 28 27 25 24 24 23 22 22 20 19 17 16 15 13 11 10 8 6 5 4 3 2 2 3 4 5 7 8 9 10 11 12 13 13 13 12 11 13 15 15 16 18 18 19 20 21 21 21 22 24 25 26 27 28 28 27 27 26 26 25 25 24 24 24 23 23 22 23 23 23 22 22 22 22
32 33 34 34 34 34 34 33 32 32 31 29 28 27 26 25 24 24 22 20 20 18 17 16 14 12 11 10 8 6 6 5 4 3 3 4 4 6 7 8 10 10 11 12 12 12 10 10 13 14 15 17 18 18 18 19 20 21 22 23 24 26 27 28 29 28 27 26 25 25 24 23 23 22 21 21 22 23 24 24 23 23 22 22 22
35 34 35 34 34 35 34 34 33 33 32 29 28 28 26 25 24 24 23 21 20 19 18 17 15 13 12 11 9 8 7 7 5 4 4 4 5 6 7 8 9 10 11 11 11 10 9 11 12 12 15 18 19 19 19 19 21 23 23 25 27 27 27 28 29 28 27 25 25 24 22 22 20 20 19 20 22 24 24 24 23 23 22 23 24
36 35 35 35 35 35 35 35 34 34 33 30 28 28 26 25 25 24 22 22 21 19 19 17 16 15 13 12 11 9 9 8 7 5 5 5 5 6 7 8 9 10 10 10 9 9 9 11 11 12 16 19 19 20 20 21 22 23 25 27 28 27 29 30 29 28 27 26 24 22 20 19 18 18 18 19 21 23 23 23 23 23 24 26 26
35 35 36 37 36 36 36 36 35 34 33 31 29 28 26 25 24 23 23 23 22 20 19 18 17 16 14 13 13 11 10 9 8 7 5 5 5 6 7 7 9 9 9 9 9 9 9 9 12 15 16 18 19 20 21 21 22 25 27 28 28 29 30 29 27 27 26 24 22 20 18 17 16 17 18 20 21 22 23 23 23 25 27 29 28
34 34 35 36 35 36 36 35 34 34 33 31 30 29 27 25 24 23 22 23 22 20 20 20 18 17 15 15 14 12 11 10 9 7 5 5 5 6 7 7 8 8 8 8 9 9 9 10 14 16 17 17 17 18 19 20 23 26 27 28 30 30 28 27 27 25 22 21 19 18 17 16 16 16 18 21 22 23 23 23 25 28 29 29 29
33 33 34 35 35 35 35 35 34 34 33 32 31 29 27 26 25 24 24 24 24 22 20 20 19 17 17 16 16 13 12 11 10 8 6 5 5 5 6 7 7 8 8 9 10 11 12 13 15 16 18 19 18 17 17 19 23 25 26 27 30 28 26 26 23 20 17 15 14 14 16 17 18 20 22 23 24 23 24 26 28 29 30 29 29
32 33 34 36 36 37 37 36 35 35 35 35 33 32 31 30 28 28 28 26 25 24 22 21 19 18 17 17 17 14 13 12 10 8 6 6 6 6 6 7 7 7 8 10 11 12 13 14 14 15 16 18 20 19 17 18 18 20 23 27 31 28 23 23 19 13 11 11 15 20 21 22 22 22 22 22 22 23 25 27 28 28 29 29 29
32 33 35 36 36 37 38 37 36 36 36 36 36 35 34 33 32 31 30 28 27 26 25 23 20 19 18 18 17 15 14 13 11 9 8 7 7 6 7 7 7 8 9 11 12 14 13 13 13 14 15 16 19 19 16 15 13 15 18 19 23 24 21 19 9 3 11 21 25 23 20 19 19 19 19 20 21 24 25 26 27 28 29 29 28
33 34 36 36 36 36 37 37 37 37 36 36 36 35 34 33 31 30 28 27 25 24 23 22 20 19 19 19 18 16 15 14 12 11 9 9 8 8 7 7 8 9 10 11 12 13 12 11 11 13 15 16 18 17 13 11 12 16 14 9 9 12 13 9 3 14 30 28 18 14 14 16 19 20 20 21 22 23 24 25 27 29 29 29 30
32 33 34 36 36 36 37 37 38 38 37 36 36 34 32 30 27 25 25 23 22 22 20 19 20 20 21 20 19 17 16 14 13 12 11 10 9 8 8 8 8 9 10 11 12 12 11 10 10 11 14 17 18 17 13 11 12 11 7 4 5 5 5 5 12 26 25 13 12 18 21 21 20 19 19 20 22 24 26 28 29 30 30 31 33
32 34 35 37 36 36 37 38 38 38 37 36 36 34 31 29 25 23 23 21 21 23 22 21 22 22 22 22 20 18 17 16 14 13 12 10 10 9 8 9 9 9 10 10 11 11 9 10 11 13 15 16 17 18 17 13 10 7 5 5 4 3 3 8 16 15 7 12 23 23 19 18 18 19 21 24 25 27 28 29 30 31 32 33 34
33 35 36 37 36 36 37 37 38 38 38 37 36 35 34 33 32 31 29 26 25 27 29 29 28 27 25 22 20 18 18 17 16 14 12 11 10 10 9 10 10 10 10 10 11 10 10 11 11 13 15 15 16 18 18 15 10 9 10 10 9 8 9 11 9 6 11 19 17 11 14 20 21 22 24 26 27 28 29 31 33 35 35 35 35
33 34 34 35 36 36 37 38 38 38 38 37 37 36 36 36 36 36 35 33 31 30 32 31 30 29 25 22 20 19 19 18 16 14 13 12 11 10 11 11 10 11 10 11 11 10 11 11 11 13 15 16 17 18 19 16 11 10 11 12 15 16 17 14 7 6 14 15 10 12 17 18 20 23 25 28 29 31 32 33 34 35 34 34 35
32 32 34 36 37 37 37 38 38 38 38 38 38 38 38 38 37 36 34 34 32 30 29 28 26 26 24 22 21 21 20 18 16 14 13 12 11 11 12 11 11 11 11 11 11 10 11 11 11 13 16 18 18 19 19 16 14 13 12 12 15 17 18 18 16 12 8 10 16 20 18 17 20 22 25 30 29 29 31 31 31 31 32 33 34
31 33 36 37 37 37 36 37 38 37 37 38 39 39 39 38 37 35 32 31 29 27 26 25 23 24 24 23 23 22 20 18 16 15 14 13 12 12 12 12 12 11 11 11 11 11 11 12 13 15 17 19 18 18 19 19 18 17 15 14 15 16 17 18 20 17 11 9 13 16 19 23 23 20 20 25 29 28 30 30 31 32 33 34 36
32 34 35 35 36 36 36 37 38 37 37 38 40 40 39 37 37 36 33 30 27 25 25 26 26 26 26 25 24 22 20 18 17 15 14 14 13 13 13 13 12 11 11 11 11 11 12 13 14 15 16 18 19 19 20 21 19 18 17 16 16 15 14 12 13 16 13 10 11 13 20 23 22 21 20 24 30 30 31 33 33 35 36 36 37
31 32 33 34 36 36 36 38 38 37 37 38 40 40 39 38 37 36 34 32 30 29 29 30 29 28 27 26 25 22 20 18 17 16 15 14 14 13 13 13 12 11 11 11 11 12 12 12 13 14 16 18 20 20 21 21 19 19 18 17 18 17 15 13 13 15 11 9 10 11 18 24 26 29 30 29 32 31 31 35 35 35 36 37 37
Wind_Direction
97 84 90 109 89 74 67 63 61 58 60 61 61 63 66 66 66 65 64 62 60 62 64 64 60 57 61 58 53 53 52 50 42 34 26 22 21 20 15 11 12 14 15 11 11 15 13 13 15 11 6 5 5 357 1 7 0 359 5 9 10 10 10 9 3 350 339 330 327 323 321 320 321 324 319 311 310 315 321 324 326 329 335 336 326
106 95 78 79 83 77 70 66 63 59 63 67 67 70 76 75 73 71 68 65 62 61 62 63 63 61 65 64 61 62 64 65 60 57 51 41 32 30 28 22 19 18 18 11 8 11 12 10 7 3 0 359 359 352 354 2 2 1 1 2 3 4 4 6 6 2 352 340 335 329 329 324 320 328 330 324 317 313 310 314 319 325 333 334 325
107 95 59 61 85 79 72 70 68 66 68 70 72 75 80 76 70 71 69 67 65 64 63 63 62 59 63 66 65 65 67 69 67 65 63 57 47 42 41 33 26 27 25 17 17 18 14 12 9 5 2 0 356 353 352 351 359 5 1 357 357 356 356 1 1 1 358 355 348 342 342 337 337 343 338 331 327 323 310 307 312 318 328 332 324
105 91 57 62 92 84 78 78 75 73 72 75 77 76 84 84 72 73 73 69 70 72 75 71 66 65 68 74 73 74 76 78 78 76 74 69 61 58 56 48 41 36 33 28 27 25 20 17 18 18 12 8 359 359 0 349 352 360 360 356 354 351 349 354 356 355 353 357 358 359 8 5 4 351 333 330 327 324 315 309 308 313 322 327 323
108 102 88 81 97 95 88 88 85 81 78 82 89 83 90 89 75 80 93 81 85 86 87 75 75 82 80 84 82 82 86 88 91 87 80 71 63 63 62 60 59 51 46 40 36 34 30 28 29 24 12 12 11 8 6 355 350 348 350 351 350 349 345 345 347 349 347 354 0 11 23 11 4 353 335 332 328 324 322 317 311 310 316 322 323
112 111 120 112 106 104 94 96 94 90 90 93 99 96 99 92 76 77 87 75 68 64 77 66 62 96 84 87 84 74 77 77 74 61 55 57 52 52 46 54 65 61 56 46 42 43 38 42 42 25 10 17 20 17 11 360 353 345 343 341 340 340 337 337 336 338 344 351 1 14 16 358 350 349 343 339 331 328 325 324 320 314 314 320 323
119 120 132 129 118 113 100 99 100 99 97 95 99 102 106 105 90 84 85 79 71 64 68 67 52 10 3 0 7 10 10 14 18 31 28 2 359 12 355 345 5 15 22 30 34 36 21 30 45 28 16 20 19 19 17 7 358 345 333 329 326 322 322 325 327 333 342 346 0 10 358 341 333 324 334 341 336 328 324 325 324 321 318 316 315
120 125 148 147 129 123 115 110 111 109 106 105 104 107 110 114 111 104 104 99 95 84 76 74 62 43 41 28 7 8 5 7 9 18 18 7 6 4 355 348 353 356 347 359 7 7 355 348 358 3 3 2 360 358 356 357 358 349 335 326 320 315 313 313 318 327 336 347 5 358 339 334 333 315 318 329 325 315 312 316 319 319 318 313 309
119 126 153 157 145 139 134 130 131 126 126 125 120 119 116 117 119 118 117 112 111 104 95 88 75 58 43 33 22 18 15 15 15 14 13 10 8 1 357 353 354 359 358 2 357 348 342 332 324 330 338 341 344 343 340 339 342 341 336 332 327 321 317 312 312 318 326 344 356 343 329 323 321 320 325 324 314 312 314 319 321 318 313 309 307
130 146 156 154 151 149 144 138 133 131 128 123 120 118 115 114 114 111 111 110 108 102 97 89 79 68 52 42 35 32 31 28 27 27 25 18 10 3 357 352 349 348 349 352 351 347 340 334 328 326 329 330 332 335 335 335 334 332 331 331 329 328 327 321 316 316 317 327 330 325 326 319 315 321 329 323 315 320 321 324 329 327 319 314 310
141 164 173 158 148 147 144 138 130 126 121 118 117 115 113 109 107 104 102 100 100 96 93 87 78 71 62 56 50 46 43 41 39 35 32 26 16 9 2 357 351 344 341 339 341 341 337 334 333 330 327 327 328 329 329 330 331 330 329 328 328 328 328 326 324 322 318 317 315 315 317 312 316 318 317 318 318 321 318 319 325 329 328 324 318
152 172 180 160 148 143 140 135 131 128 122 121 119 118 114 109 105 100 96 92 92 91 90 86 81 72 65 58 52 51 46 42 40 36 32 26 17 11 7 3 358 352 346 342 340 338 336 334 333 333 331 330 330 328 327 325 325 325 325 325 324 324 324 325 325 324 322 319 313 313 310 303 307 308 305 308 309 312 315 318 321 324 327 329 326
156 171 176 164 153 146 144 140 139 141 139 138 134 129 119 114 107 97 90 84 82 79 80 77 73 64 58 51 44 43 39 38 36 35 32 28 24 18 16 13 8 2 356 352 348 344 340 337 334 334 333 333 332 331 329 327 325 322 321 321 320 320 320 321 321 321 320 319 315 310 310 309 309 309 306 304 305 309 315 319 319 320 323 328 330
154 165 172 167 163 159 162 163 160 159 155 155 152 147 135 124 108 97 88 81 76 71 71 67 66 64 59 54 51 48 44 44 41 40 37 33 31 27 24 21 17 12 7 2 358 355 350 347 343 340 339 337 335 334 332 331 329 325 323 321 319 318 317 316 315 316 316 317 319 315 312 311 309 308 304 300 302 307 310 313 316 318 319 324 328
162 168 176 175 178 187 191 190 184 181 176 175 169 161 150 134 122 114 102 92 87 81 78 73 73 70 68 66 62 59 55 51 47 44 40 37 34 31 28 25 22 17 14 10 6 3 359 357 353 352 350 348 346 342 340 337 335 332 329 326 323 321 320 318 315 314 314 316 322 325 315 300 295 297 301 301 300 303 305 308 313 316 316 319 321
176 175 184 189 191 198 198 197 193 191 186 179 173 159 145 134 127 121 114 109 101 94 89 84 80 76 74 71 67 65 61 56 53 49 44 41 36 32 30 27 24 20 16 13 9 7 4 2 359 358 356 355 354 351 351 349 346 343 339 336 332 329 327 325 323 322 322 325 332 333 325 313 303 296 296 296 293 296 303 308 311 314 315 315 316
183 182 192 195 194 199 197 193 188 182 178 167 162 150 140 132 126 123 121 118 112 108 102 97 92 88 85 83 80 75 71 65 60 57 53 50 44 38 37 34 29 25 21 16 13 10 8 5 2 1 360 358 357 356 358 357 355 354 353 350 346 343 340 340 344 348 348 346 340 332 332 327 314 301 295 291 288 290 297 305 307 310 311 311 313
184 188 195 192 189 197 191 185 183 175 171 162 154 144 138 131 128 126 123 121 118 117 113 111 108 106 105 105 104 97 90 82 75 71 66 63 59 51 50 47 42 37 31 26 22 18 15 11 9 7 5 3 1 359 0 1 0 0 0 0 1 2 2 3 5 4 350 330 316 312 319 315 305 302 302 297 294 295 297 299 301 303 304 306 308
184 190 192 185 185 194 187 182 181 176 173 162 153 143 136 131 129 127 124 122 119 117 116 113 112 113 113 109 104 95 88 82 78 75 71 68 63 55 54 53 48 46 40 36 34 30 27 22 21 20 18 16 12 11 12 11 8 7 5 5 9 12 12 6 354 341 325 315 310 307 307 303 299 300 299 296 294 296 298 296 296 296 297 299 301
182 186 190 186 188 194 189 183 179 181 179 164 158 147 139 136 131 129 125 123 120 118 116 113 110 107 99 92 87 81 74 70 68 67 66 63 60 54 52 51 47 45 41 40 39 34 32 30 28 27 27 26 23 24 23 19 17 17 14 12 13 11 7 358 352 348 344 342 336 324 309 299 297 297 298 297 292 291 295 295 294 294 293 293 295
185 186 190 188 191 195 192 186 183 188 185 170 164 154 148 144 137 134 128 125 123 120 117 111 108 101 88 82 81 77 69 63 60 59 59 57 55 51 49 48 44 42 39 39 36 31 31 30 27 27 27 26 25 26 24 23 23 22 18 18 15 10 6 1 358 359 357 353 342 327 310 297 295 295 298 300 294 290 291 293 293 293 293 291 291
191 190 193 194 194 194 191 191 191 191 187 176 169 161 158 150 143 140 133 131 127 122 117 109 104 97 85 79 75 70 61 54 51 47 45 45 43 40 39 39 36 35 33 33 31 28 28 25 23 23 23 21 21 22 20 21 22 20 18 16 12 10 9 7 4 0 356 350 340 333 323 315 312 309 308 309 304 298 294 294 293 294 293 291 288
194 193 194 199 199 195 193 197 196 191 187 180 174 169 166 158 152 148 142 139 133 125 114 105 96 89 84 77 67 61 53 43 39 36 34 34 32 31 31 30 29 29 27 28 26 24 24 20 19 19 17 16 16 16 15 16 16 14 14 11 7 8 7 5 3 360 355 350 344 339 333 326 323 322 319 317 315 309 304 301 299 297 296 292 288
195 195 194 197 200 198 194 199 198 192 187 182 179 176 172 168 163 160 155 149 142 133 117 104 93 87 86 78 64 58 50 39 34 31 28 27 26 24 25 24 25 25 25 26 23 22 23 17 15 16 15 15 13 12 12 11 9 9 9 7 3 2 0 360 359 356 353 347 344 341 336 334 332 329 326 322 319 316 312 308 303 299 298 297 294
195 194 195 196 198 200 195 198 198 190 188 184 182 182 179 177 173 168 163 157 155 144 125 112 100 91 88 78 64 55 47 39 32 28 24 22 20 17 19 20 20 21 20 23 22 20 20 16 14 13 13 14 11 12 10 5 5 5 4 1 357 356 355 356 353 349 347 343 341 340 337 336 336 335 332 328 323 318 314 311 308 303 298 297 296
193 192 196 195 196 198 195 198 197 189 189 186 185 187 185 183 178 174 171 166 164 154 141 129 114 103 92 79 68 55 41 35 28 23 20 17 16 14 16 16 16 17 16 17 18 16 16 14 12 10 10 11 9 10 6 3 4 1 357 354 351 351 351 350 347 345 342 339 338 339 337 334 332 330 329 328 327 325 320 315 313 309 305 300 296
192 192 195 194 194 195 196 199 195 189 189 185 188 190 184 186 183 177 177 175 169 165 160 149 137 125 106 87 76 59 40 32 24 20 16 11 12 12 13 14 12 14 14 13 13 13 11 10 10 7 7 7 7 8 2 3 4 357 353 352 349 346 345 344 342 340 337 334 334 334 333 331 328 327 327 328 327 326 324 321 317 313 311 306 302
190 191 192 192 192 193 196 198 194 191 188 185 192 188 182 190 187 181 183 181 177 178 174 165 158 146 129 110 93 73 45 32 22 17 12 6 8 10 12 12 9 10 11 9 10 8 6 8 6 2 4 4 5 5 360 2 1 355 354 352 348 344 343 341 338 335 332 330 329 328 327 325 324 324 324 324 323 319 319 321 320 317 313 310 307
191 190 190 191 192 193 195 196 194 192 187 189 192 185 187 194 187 186 188 183 184 184 179 177 174 162 152 146 126 105 57 33 22 15 10 6 6 10 10 9 8 7 6 7 6 4 3 6 3 359 0 0 2 2 358 358 356 355 355 349 346 345 344 342 339 336 333 330 326 324 322 320 319 319 318 317 317 316 314 314 316 315 312 309 307
194 190 190 191 191 192 194 194 194 193 190 189 189 186 194 194 186 191 190 185 189 186 180 183 184 176 168 167 162 150 111 42 22 10 7 5 7 8 5 4 5 2 3 5 2 1 3 6 1 354 354 356 358 357 354 352 351 352 350 346 345 343 343 342 339 337 335 332 328 325 323 320 318 317 315 312 313 314 313 311 310 310 309 309 308
194 191 192 192 190 191 193 194 193 194 192 188 185 190 196 192 189 194 189 189 191 185 183 187 190 187 179 178 179 177 175 117 29 8 3 2 5 2 358 359 358 359 2 359 358 1 2 3 356 347 349 351 350 351 351 345 344 346 344 342 341 339 339 338 335 334 332 330 328 325 325 324 322 320 318 314 311 310 310 310 309 309 309 309 309
194 193 192 191 190 191 191 192 193 193 192 187 186 192 195 191 193 194 191 193 190 185 188 190 193 191 187 190 184 185 207 200 78 0 354 355 1 356 355 356 352 359 360 353 356 0 360 359 350 344 346 346 345 347 344 337 338 341 339 337 336 335 334 332 330 329 328 326 325 323 322 323 324 324 322 319 316 313 311 310 310 311 311 310 310
196 194 192 192 191 191 190 190 192 193 191 189 189 192 194 193 195 195 195 194 188 188 191 192 197 194 190 199 193 190 216 229 268 328 342 347 354 353 353 351 348 356 355 350 354 355 357 356 344 340 343 344 342 341 336 334 336 335 334 334 332 331 330 327 327 327 325 324 323 322 321 321 321 321 322 322 320 319 317 315 314 313 312 310 309
195 191 192 193 192 191 189 188 191 193 191 190 191 191 193 194 193 196 198 194 189 190 191 193 200 199 194 200 202 202 221 239 268 299 319 334 344 347 348 343 342 350 349 348 351 352 356 349 335 335 341 341 337 334 332 331 331 331 330 328 326 327 327 326 327 326 325 324 322 321 321 320 319 318 319 320 319 321 322 321 318 314 312 309 308
194 192 193 193 191 191 189 188 192 194 191 191 193 191 194 195 192 197 199 192 191 192 193 196 199 204 203 201 204 209 227 239 251 277 298 317 332 337 338 333 337 344 345 347 348 349 351 335 329 336 336 333 331 330 329 327 326 325 324 323 323 324 324 324 325 324 323 321 319 319 318 318 318 318 319 320 321 322 323 322 317 313 311 309 308
195 193 192 190 191 190 189 190 192 194 190 191 194 192 196 196 192 199 198 190 193 193 195 198 196 202 209 208 209 213 229 242 244 255 273 294 316 328 329 327 332 338 341 345 345 344 339 326 332 337 327 325 327 328 328 325 322 321 322 322 321 321 321 321 320 320 320 317 317 318 317 316 316 316 317 319 320 321 320 318 314 310 309 308 308
195 193 190 189 190 190 190 191 192 193 191 191 193 192 195 195 193 199 196 190 193 193 195 199 196 198 206 213 218 218 225 236 241 247 260 285 312 323 323 324 329 335 338 340 338 337 335 332 333 327 321 323 325 326 326 325 323 321 320 320 321 321 320 320 319 318 316 313 314 317 318 318 316 315 315 314 315 316 316 315 314 313 311 310 309
194 193 191 190 190 189 190 192 193 193 190 189 191 192 194 192 192 197 197 192 192 194 196 198 197 199 203 212 221 221 224 234 240 248 262 286 309 315 316 322 325 330 332 330 330 335 341 332 319 317 321 323 321 322 323 324 322 317 317 320 322 322 320 321 320 317 314 311 312 315 315 314 311 311 313 313 314 314 312 312 313 313 311 310 308
192 192 191 190 190 189 190 191 191 190 189 189 189 189 189 189 189 193 196 193 191 193 198 200 199 200 203 211 220 222 226 236 241 249 264 286 302 307 311 315 319 322 321 321 327 333 333 321 314 321 326 323 319 320 322 322 318 316 319 322 322 322 322 322 319 315 313 312 312 311 310 310 310 312 314 314 314 312 310 309 309 309 308 307 307
190 190 189 189 189 189 189 190 190 188 187 187 187 186 184 185 187 190 193 194 193 192 197 202 200 200 206 213 219 220 226 236 241 249 262 276 286 291 298 306 312 314 312 316 324 326 324 320 321 326 327 324 321 322 324 320 316 317 321 321 322 323 324 324 322 319 319 319 319 314 309 308 307 307 307 305 304 303 302 302 303 305 305 305 305
188 187 187 188 190 190 188 189 189 188 188 187 186 185 184 184 186 192 194 194 196 195 196 202 202 202 207 215 219 218 222 232 239 248 257 263 270 277 288 300 304 303 305 313 320 321 320 324 330 329 324 319 317 322 329 324 321 326 327 324 324 325 327 326 323 325 330 326 316 306 299 299 299 302 305 302 297 296 296 298 301 302 302 303 302
184 186 188 190 192 192 191 190 189 189 191 191 189 188 190 190 191 195 196 195 197 199 199 201 201 202 208 216 219 217 220 228 235 242 249 254 259 270 283 292 292 295 303 312 318 318 321 328 328 320 312 305 305 318 331 331 331 333 327 323 324 328 330 327 320 312 313 308 305 301 298 299 301 306 308 303 297 294 295 298 301 301 301 300 298
185 188 191 191 192 192 193 192 191 191 193 194 192 192 194 195 197 197 197 196 198 201 203 203 201 202 207 214 217 217 222 226 232 239 243 249 256 268 279 282 284 291 302 311 313 313 316 318 311 300 298 296 298 309 322 325 323 325 324 314 318 330 329 325 287 297 306 308 309 309 306 302 301 305 303 299 299 295 295 298 299 299 297 295 291
186 190 191 191 192 193 193 193 193 193 194 195 195 194 195 195 198 198 195 196 197 196 198 200 201 202 207 212 214 217 223 228 233 239 242 248 257 266 274 274 278 288 298 303 301 301 304 302 295 285 286 289 293 300 309 317 318 319 325 306 302 311 307 327 318 306 306 311 313 308 304 300 302 306 304 301 301 296 295 297 298 297 295 293 292
190 192 191 192 193 194 195 194 195 195 195 196 195 194 192 188 187 185 183 184 184 184 185 188 194 199 204 209 213 216 221 227 232 237 243 249 258 266 270 270 272 279 287 289 287 291 291 285 282 281 281 282 286 293 299 312 317 298 276 279 299 299 288 330 325 307 287 299 304 304 303 305 307 306 303 301 300 298 298 298 298 297 296 294 293
194 195 194 194 194 195 196 196 196 197 197 197 195 192 190 186 182 178 177 176 177 185 190 191 193 198 203 207 212 217 221 224 228 233 239 245 255 263 264 265 268 272 276 277 277 278 278 277 280 280 279 278 281 285 290 301 305 281 267 259 255 260 283 319 330 304 297 301 297 292 298 304 305 303 302 302 301 300 298 297 297 296 295 293 292
197 196 195 195 196 196 197 197 197 198 198 197 195 192 190 189 188 187 186 185 185 192 198 199 201 203 204 207 211 215 219 221 222 227 235 242 249 254 258 261 264 268 268 267 270 271 272 277 279 274 273 276 277 277 283 292 291 278 273 263 256 261 275 288 288 296 312 307 287 284 291 296 303 304 302 300 299 299 297 296 296 295 293 291 291
196 194 195 196 197 197 198 198 198 199 198 197 195 194 193 192 192 193 193 194 194 196 199 200 203 205 204 204 206 210 214 218 220 224 231 238 243 246 251 256 259 263 264 264 268 271 271 274 271 266 269 275 277 276 279 282 279 278 279 272 267 269 272 273 272 277 300 307 301 299 295 294 299 299 299 300 299 298 297 297 295 293 290 290 290
195 194 197 197 198 198 198 198 198 199 198 198 197 197 197 195 195 196 196 198 199 198 199 196 195 197 196 197 200 204 209 214 219 224 228 233 238 242 246 251 255 257 260 263 267 267 268 268 266 266 271 275 274 272 273 274 274 275 277 275 273 276 275 273 274 271 266 280 296 304 307 308 305 296 296 300 299 297 296 295 293 290 289 289 289
196 196 197 197 197 197 197 198 199 199 199 199 199 198 199 198 198 198 197 197 195 193 193 188 187 189 190 193 196 200 206 211 216 221 226 231 234 239 242 247 251 253 257 261 264 264 264 268 271 273 274 273 271 269 269 271 272 270 271 273 273 274 277 276 270 266 266 267 277 292 303 310 309 302 302 301 297 296 295 293 291 289 289 288 288
194 195 197 197 197 197 197 198 199 199 199 200 200 200 200 200 201 201 199 196 191 186 184 183 185 187 189 193 196 200 204 209 215 219 224 228 231 237 241 244 246 250 256 260 262 265 268 272 273 271 269 269 269 270 269 270 270 269 270 269 269 268 267 267 266 267 268 266 276 288 294 300 301 297 301 302 296 294 293 291 290 289 289 288 287